When you browse on this site, cookies collect data to enhance your experience and personalize the content and advertising you see.
Visit our Privacy Policy to learn more. By continuing to use the site, you agree to this use of cookies and data.
  • In Deutschland
  • Länderverzeichnis
  • Für 7 Tage
  • Wassertemperatur
  • Wetterkarte
  • Widgets
  • user-avatar
    Anmelden

    Stündliche Wetter Galkinskoe

    Heute, 17 Oktober, Donnerstag

    Zeit Temperatur Niederschläge Wind Luftdruck Luftfeuchtigkeit
    00:00 -1°C° 0 mm 5 m/S 752 mmHg 86%
    01:00 -1°C° 0 mm 5 m/S 753 mmHg 85%
    02:00 -2°C° 0 mm 5 m/S 753 mmHg 85%
    03:00 -2°C° 0 mm 5 m/S 754 mmHg 85%
    04:00 -2°C° 0 mm 4 m/S 754 mmHg 89%
    05:00 -2°C° 0 mm 4 m/S 755 mmHg 88%
    06:00 -2°C° 0 mm 4 m/S 755 mmHg 87%
    07:00 -2°C° 0 mm 4 m/S 755 mmHg 85%
    08:00 -1°C° 0 mm 4 m/S 756 mmHg 81%
    09:00 -1°C° 0 mm 5 m/S 756 mmHg 76%
    10:00 0°C° 0 mm 5 m/S 756 mmHg 72%
    11:00 0°C° 0 mm 5 m/S 756 mmHg 71%
    12:00 0°C° 0 mm 5 m/S 756 mmHg 69%
    13:00 +1°C° 0 mm 4 m/S 756 mmHg 68%
    14:00 0°C° 0 mm 4 m/S 756 mmHg 69%
    15:00 +1°C° 0 mm 3 m/S 757 mmHg 71%
    16:00 +2°C° 0 mm 2 m/S 757 mmHg 72%
    17:00 +1°C° 0 mm 2 m/S 757 mmHg 73%
    18:00 +1°C° 0 mm 2 m/S 757 mmHg 75%
    19:00 +1°C° 0 mm 2 m/S 756 mmHg 76%
    20:00 +1°C° 0 mm 2 m/S 756 mmHg 78%
    21:00 -1°C° 0 mm 2 m/S 756 mmHg 80%
    22:00 -1°C° 0 mm 2 m/S 756 mmHg 82%
    23:00 -1°C° 0.1 mm 2 m/S 755 mmHg 87%

    Morgen, 18 Oktober, Freitag

    Zeit Temperatur Niederschläge Wind Luftdruck Luftfeuchtigkeit
    00:00 -1°C° 0.1 mm 2 m/S 755 mmHg 92%
    01:00 -1°C° 0.1 mm 2 m/S 754 mmHg 97%
    02:00 -1°C° 0.2 mm 2 m/S 754 mmHg 97%
    03:00 -1°C° 0.2 mm 2 m/S 753 mmHg 97%
    04:00 -1°C° 0.2 mm 3 m/S 753 mmHg 97%
    05:00 -1°C° 0.2 mm 3 m/S 752 mmHg 97%
    06:00 0°C° 0.2 mm 3 m/S 752 mmHg 97%
    07:00 0°C° 0.2 mm 3 m/S 751 mmHg 97%
    08:00 0°C° 0.3 mm 3 m/S 751 mmHg 97%
    09:00 0°C° 0.3 mm 3 m/S 751 mmHg 97%
    10:00 0°C° 0.3 mm 3 m/S 750 mmHg 97%
    11:00 -1°C° 0.7 mm 4 m/S 750 mmHg 97%
    12:00 -1°C° 0.7 mm 4 m/S 750 mmHg 97%
    13:00 -1°C° 0.7 mm 4 m/S 750 mmHg 97%
    14:00 -1°C° 0.2 mm 4 m/S 750 mmHg 97%
    15:00 -1°C° 0.2 mm 4 m/S 750 mmHg 97%
    16:00 -1°C° 0.2 mm 4 m/S 750 mmHg 97%
    17:00 -1°C° 0.1 mm 5 m/S 751 mmHg 96%
    18:00 -1°C° 0.1 mm 5 m/S 751 mmHg 95%
    19:00 -2°C° 0.1 mm 5 m/S 751 mmHg 94%
    20:00 -2°C° 0 mm 5 m/S 752 mmHg 92%
    21:00 -3°C° 0 mm 6 m/S 752 mmHg 90%
    22:00 -3°C° 0 mm 6 m/S 753 mmHg 88%
    23:00 -4°C° 0 mm 5 m/S 754 mmHg 88%

    übermorgen, 19 Oktober, Samstag

    Zeit Temperatur Niederschläge Wind Luftdruck Luftfeuchtigkeit
    00:00 -5°C° 0 mm 5 m/S 754 mmHg 87%
    01:00 -5°C° 0 mm 4 m/S 755 mmHg 86%
    02:00 -5°C° 0 mm 4 m/S 755 mmHg 86%
    03:00 -5°C° 0 mm 4 m/S 756 mmHg 86%
    04:00 -7°C° 0 mm 4 m/S 757 mmHg 86%
    05:00 -7°C° 0 mm 4 m/S 757 mmHg 86%
    06:00 -7°C° 0 mm 4 m/S 758 mmHg 85%
    07:00 -7°C° 0 mm 4 m/S 758 mmHg 85%
    08:00 -5°C° 0 mm 4 m/S 759 mmHg 81%
    09:00 -4°C° 0 mm 4 m/S 759 mmHg 77%
    10:00 -4°C° 0 mm 4 m/S 760 mmHg 72%
    11:00 -2°C° 0 mm 3 m/S 760 mmHg 71%
    12:00 -2°C° 0 mm 3 m/S 760 mmHg 69%
    13:00 -1°C° 0 mm 3 m/S 760 mmHg 67%
    14:00 -2°C° 0 mm 2 m/S 760 mmHg 70%
    15:00 -2°C° 0 mm 2 m/S 761 mmHg 72%
    16:00 -2°C° 0 mm 2 m/S 761 mmHg 75%
    17:00 -3°C° 0 mm 2 m/S 761 mmHg 77%
    18:00 -4°C° 0 mm 2 m/S 762 mmHg 79%
    19:00 -2°C° 0 mm 1 m/S 762 mmHg 81%
    20:00 -2°C° 0 mm 1 m/S 763 mmHg 81%
    21:00 -2°C° 0 mm 1 m/S 763 mmHg 81%
    22:00 -2°C° 0 mm 1 m/S 763 mmHg 81%
    23:00 -2°C° 0 mm 1 m/S 763 mmHg 81%

    20 Oktober, Sonntag

    Zeit Temperatur Niederschläge Wind Luftdruck Luftfeuchtigkeit
    00:00 -3°C° 0 mm 1 m/S 763 mmHg 82%
    01:00 -3°C° 0 mm 1 m/S 763 mmHg 82%
    02:00 -3°C° 0 mm 1 m/S 764 mmHg 82%
    03:00 -3°C° 0 mm 1 m/S 764 mmHg 83%
    04:00 -3°C° 0 mm 1 m/S 764 mmHg 83%
    05:00 -5°C° 0 mm 2 m/S 764 mmHg 83%
    06:00 -5°C° 0 mm 2 m/S 764 mmHg 84%
    07:00 -5°C° 0 mm 2 m/S 764 mmHg 84%
    08:00 -4°C° 0 mm 2 m/S 764 mmHg 78%
    09:00 -4°C° 0 mm 3 m/S 764 mmHg 72%
    10:00 -2°C° 0 mm 3 m/S 764 mmHg 65%
    11:00 -2°C° 0 mm 4 m/S 764 mmHg 63%
    12:00 -2°C° 0 mm 4 m/S 763 mmHg 61%
    13:00 -1°C° 0 mm 4 m/S 763 mmHg 59%
    14:00 -1°C° 0 mm 4 m/S 763 mmHg 62%
    15:00 -2°C° 0 mm 4 m/S 763 mmHg 65%
    16:00 -2°C° 0 mm 4 m/S 762 mmHg 68%
    17:00 -3°C° 0 mm 4 m/S 762 mmHg 69%
    18:00 -3°C° 0 mm 4 m/S 762 mmHg 70%
    19:00 -3°C° 0 mm 4 m/S 762 mmHg 71%
    20:00 -3°C° 0 mm 4 m/S 762 mmHg 72%
    21:00 -4°C° 0 mm 5 m/S 761 mmHg 73%
    22:00 -4°C° 0 mm 5 m/S 761 mmHg 73%
    23:00 -4°C° 0 mm 5 m/S 761 mmHg 75%

    21 Oktober, Montag

    Zeit Temperatur Niederschläge Wind Luftdruck Luftfeuchtigkeit
    00:00 -4°C° 0 mm 5 m/S 760 mmHg 76%
    01:00 -4°C° 0 mm 5 m/S 760 mmHg 78%
    02:00 -4°C° 0 mm 5 m/S 759 mmHg 79%
    03:00 -2°C° 0 mm 5 m/S 759 mmHg 80%
    04:00 -2°C° 0 mm 5 m/S 758 mmHg 81%
    05:00 -2°C° 0 mm 5 m/S 758 mmHg 82%
    06:00 -2°C° 0 mm 6 m/S 757 mmHg 82%
    07:00 -2°C° 0 mm 6 m/S 757 mmHg 82%
    08:00 -2°C° 0.1 mm 6 m/S 756 mmHg 83%
    09:00 -1°C° 0.1 mm 6 m/S 756 mmHg 83%
    10:00 +1°C° 0.1 mm 6 m/S 755 mmHg 84%
    11:00 +1°C° 1.1 mm 6 m/S 755 mmHg 86%
    12:00 +1°C° 1.1 mm 6 m/S 754 mmHg 89%
    13:00 +1°C° 1.1 mm 6 m/S 754 mmHg 92%
    14:00 +1°C° 0.4 mm 6 m/S 754 mmHg 92%
    15:00 +1°C° 0.4 mm 5 m/S 754 mmHg 92%
    16:00 +2°C° 0.4 mm 5 m/S 753 mmHg 92%
    17:00 +2°C° 0.6 mm 5 m/S 753 mmHg 93%
    18:00 +3°C° 0.6 mm 4 m/S 753 mmHg 94%
    19:00 +3°C° 0.6 mm 4 m/S 753 mmHg 95%
    20:00 +3°C° 0.1 mm 4 m/S 753 mmHg 94%
    21:00 +3°C° 0.1 mm 4 m/S 752 mmHg 94%
    22:00 +3°C° 0.1 mm 4 m/S 752 mmHg 94%
    23:00 +3°C° 0 mm 4 m/S 751 mmHg 94%

    22 Oktober, Dienstag

    Zeit Temperatur Niederschläge Wind Luftdruck Luftfeuchtigkeit
    00:00 +3°C° 0 mm 3 m/S 751 mmHg 95%
    01:00 +2°C° 0 mm 3 m/S 750 mmHg 95%
    02:00 +3°C° 1.2 mm 4 m/S 749 mmHg 95%
    03:00 +3°C° 1.2 mm 4 m/S 749 mmHg 96%
    04:00 +2°C° 1.2 mm 5 m/S 748 mmHg 96%
    05:00 +3°C° 1.3 mm 5 m/S 747 mmHg 95%
    06:00 +3°C° 1.3 mm 6 m/S 746 mmHg 94%
    07:00 +4°C° 1.3 mm 6 m/S 745 mmHg 93%
    08:00 +5°C° 0.4 mm 6 m/S 745 mmHg 90%
    09:00 +6°C° 0.4 mm 7 m/S 745 mmHg 87%
    10:00 +8°C° 0.4 mm 7 m/S 744 mmHg 85%
    11:00 +8°C° 0 mm 6 m/S 744 mmHg 85%
    12:00 +9°C° 0 mm 5 m/S 745 mmHg 85%
    13:00 +9°C° 0 mm 5 m/S 745 mmHg 85%
    14:00 +9°C° 0.1 mm 5 m/S 745 mmHg 86%
    15:00 +8°C° 0.1 mm 4 m/S 745 mmHg 86%
    16:00 +8°C° 0.1 mm 4 m/S 745 mmHg 86%
    17:00 +7°C° 0 mm 4 m/S 746 mmHg 87%
    18:00 +7°C° 0 mm 4 m/S 746 mmHg 89%
    19:00 +7°C° 0 mm 3 m/S 746 mmHg 90%
    20:00 +7°C° 0 mm 3 m/S 747 mmHg 90%
    21:00 +5°C° 0 mm 3 m/S 747 mmHg 90%
    22:00 +5°C° 0 mm 3 m/S 747 mmHg 91%
    23:00 +4°C° 0 mm 3 m/S 747 mmHg 90%
    Mehr zeigen